TimeEST,TemperatureF,Dew PointF,Humidity,Sea Level PressureIn,VisibilityMPH,Wind Direction,Wind SpeedMPH,Gust SpeedMPH,PrecipitationIn,Events,Conditions,WindDirDegrees,DateUTC
12:53 AM,32.0,28.0,85,30.20,10.0,Calm,Calm,-,N/A,,Clear,0,2012-11-08 05:53:00
1:53 AM,30.0,26.1,85,30.19,10.0,Calm,Calm,-,N/A,,Clear,0,2012-11-08 06:53:00
2:53 AM,28.0,25.0,88,30.20,9.0,West,4.6,-,N/A,,Clear,280,2012-11-08 07:53:00
3:53 AM,30.0,26.1,85,30.19,7.0,Calm,Calm,-,N/A,,Clear,0,2012-11-08 08:53:00
4:53 AM,27.0,25.0,92,30.21,4.0,WNW,3.5,-,N/A,,Clear,290,2012-11-08 09:53:00
5:53 AM,27.0,24.1,89,30.22,5.0,NW,3.5,-,N/A,,Clear,310,2012-11-08 10:53:00
6:53 AM,28.0,24.1,85,30.23,5.0,Calm,Calm,-,N/A,,Clear,0,2012-11-08 11:53:00
7:53 AM,27.0,24.1,89,30.24,3.0,Calm,Calm,-,N/A,,Clear,0,2012-11-08 12:53:00
8:53 AM,33.1,30.0,89,30.25,5.0,Calm,Calm,-,N/A,,Partly Cloudy,0,2012-11-08 13:53:00
9:53 AM,37.0,30.9,79,30.25,8.0,SSW,3.5,-,N/A,,Overcast,210,2012-11-08 14:53:00
10:53 AM,39.0,30.9,73,30.25,10.0,South,5.8,-,N/A,,Overcast,170,2012-11-08 15:53:00
11:53 AM,41.0,30.9,67,30.22,10.0,SSW,4.6,-,N/A,,Overcast,200,2012-11-08 16:53:00
12:53 PM,44.1,30.9,60,30.19,10.0,SSW,6.9,-,N/A,,Overcast,210,2012-11-08 17:53:00
1:53 PM,45.0,30.9,58,30.18,10.0,SSW,5.8,-,N/A,,Overcast,210,2012-11-08 18:53:00
2:53 PM,46.0,30.9,56,30.18,10.0,SW,5.8,-,N/A,,Overcast,230,2012-11-08 19:53:00
3:53 PM,46.9,30.9,54,30.17,10.0,SW,4.6,-,N/A,,Overcast,230,2012-11-08 20:53:00
4:53 PM,46.0,30.9,56,30.16,10.0,SSW,3.5,-,N/A,,Overcast,200,2012-11-08 21:53:00
5:53 PM,42.1,30.9,65,30.16,10.0,South,4.6,-,N/A,,Overcast,180,2012-11-08 22:53:00
6:53 PM,43.0,30.9,62,30.15,10.0,South,4.6,-,N/A,,Overcast,190,2012-11-08 23:53:00
7:53 PM,41.0,30.0,65,30.13,10.0,South,5.8,-,N/A,,Mostly Cloudy,190,2012-11-09 00:53:00
8:53 PM,41.0,30.9,67,30.14,10.0,SSW,3.5,-,N/A,,Overcast,210,2012-11-09 01:53:00
9:53 PM,42.1,30.9,65,30.14,10.0,SW,5.8,-,N/A,,Overcast,230,2012-11-09 02:53:00
10:19 PM,42.8,33.8,70,30.12,9.0,SW,6.9,-,N/A,,Overcast,220,2012-11-09 03:19:00
10:51 PM,39.2,33.8,81,30.11,8.0,SW,6.9,-,N/A,,Scattered Clouds,220,2012-11-09 03:51:00
10:53 PM,39.9,33.1,77,30.13,8.0,SW,6.9,-,N/A,,Partly Cloudy,220,2012-11-09 03:53:00
11:53 PM,37.9,32.0,79,30.13,6.0,SW,4.6,-,N/A,,Haze,230,2012-11-09 04:53:00